User: anonymous   Login
Location: Bridgewater Hill Observatory
(43.5992°N, 72.6989°W)
Time: 16:17:08
(UTC-04:00)
Language:

Cosmos 1452 Rocket - Orbit

View from above orbital plane
View from above orbital plane
View from above satellite
View from above satellite

Ground track
Ground track

The orbit data is extracted from the following two-line orbital elements,

1 13992U 83031B   15213.52270411  .00000012  00000-0  13096-4 0  9999
2 13992 074.0524 184.6097 0005700 324.5526 171.7369 14.35958214690384
Epoch (UTC): 01 August 2015 12:32:41
Eccentricity: 0.0005700
inclination: 74.0524°
perigee height: 768 km
apogee height: 776 km
right ascension of ascending node: 184.6097°
argument of perigee: 324.5526°
revolutions per day: 14.35958214
mean anomaly at epoch: 171.7369°
orbit number at epoch: 69038

The dashed part of the orbit path shows where the satellite is in the earth's shadow,  

DLR